Weather History for KMLE - November, 2013

Change the Weather History Date:

Thursday, November 21, 2013

  Actual Average (KOMA) Record (KOMA)
Temperature  
Mean Temperature 30 °F 36 °F  
Max Temperature 38 °F 46 °F 72 °F (2012)
Min Temperature 22 °F 26 °F -3 °F (1937)
Degree Days  
Heating Degree Days 35 29  
Month to date heating degree days 499  
Since 1 July heating degree days 984  
Cooling Degree Days 0 0  
Month to date cooling degree days 0  
Year to date cooling degree days 1112  
Moisture  
Dew Point 23 °F    
Average Humidity 77    
Maximum Humidity 90    
Minimum Humidity 65    
Precipitation  
Precipitation 0.00 in 0.05 in 0.83 in (1898)
Month to date precipitation 1.21  
Year to date precipitation 29.15  
Snow  
Snow 0.00 in 0.10 in - ()
Month to date snowfall 1.2  
Since 1 July snowfall 1.5  
Snow Depth -    
Sea Level Pressure  
Sea Level Pressure 30.27 in    
Wind  
Wind Speed 9 mph (NNW)    
Max Wind Speed 16 mph    
Max Gust Speed 28 mph    
Visibility 8 miles    
Events Snow    
T = Trace of Precipitation, MM = Missing Value Source: NWS Daily Summary

Daily Weather History Graph

Daily Weather History Graph

Search for Another Location

Airport or City:

Trip Planner

Search our weather history database for the weather conditions in past years. The results will help you decide how hot, cold, wet, or windy it might be!

Date:

Astronomy

Nov. 21, 2013 Rise Set
Actual Time 7:19 AM CST 5:00 PM CST
Civil Twilight 6:49 AM CST 5:30 PM CST
Nautical Twilight 6:16 AM CST 6:04 PM CST
Astronomical Twilight 5:43 AM CST 6:37 PM CST
Moon 8:38 PM CST (11/21) 10:26 AM CST (11/21)
Length of Visible Light 10h 40m
Length of Day
9h 40m
Waning Gibbous, 85% of the Moon is Illuminated
Nov 21
Waning Gibbous
Nov 25
Last Quarter
Dec 2
New
Dec 9
First Quarter
Dec 17
Full

Hourly Weather History & Observations

Time (CST) Temp. Windchill Dew Point Humidity Pressure Visibility Wind Dir Wind Speed Gust Speed Precip Events Conditions
12:15 AM 38.3 °F - 34.2 °F 85% 29.95 in 10.0 mi Calm Calm - N/A   Clear
12:35 AM 37.2 °F - 34.0 °F 88% 29.96 in 10.0 mi Calm Calm - N/A   Clear
12:55 AM 36.3 °F - 33.3 °F 89% 29.96 in 10.0 mi Calm Calm - N/A   Clear
1:15 AM 36.0 °F - 33.3 °F 90% 29.98 in 10.0 mi Calm Calm - N/A   Clear
1:35 AM 36.1 °F 30.6 °F 33.3 °F 89% 30.00 in 10.0 mi NW 6.9 mph - N/A   Clear
1:55 AM 37.2 °F 32.6 °F 33.8 °F 87% 30.00 in 10.0 mi NW 5.8 mph - N/A   Clear
2:15 AM 38.1 °F 31.2 °F 34.0 °F 85% 30.01 in 10.0 mi NW 10.4 mph 16.1 mph N/A   Scattered Clouds
2:35 AM 36.9 °F 29.1 °F 32.0 °F 83% 30.02 in 10.0 mi NNW 11.5 mph 20.7 mph N/A   Mostly Cloudy
2:55 AM 35.6 °F 28.0 °F 30.6 °F 82% 30.04 in 10.0 mi NNW 10.4 mph 18.4 mph N/A   Scattered Clouds
3:15 AM 35.1 °F 28.6 °F 30.0 °F 82% 30.06 in 10.0 mi NNW 8.1 mph 17.3 mph N/A   Overcast
3:35 AM 34.9 °F 28.3 °F 30.2 °F 83% 30.06 in 10.0 mi NNW 8.1 mph 16.1 mph N/A   Overcast
3:55 AM 34.9 °F 26.2 °F 30.2 °F 83% 30.07 in 10.0 mi NNW 12.7 mph 17.3 mph N/A   Overcast
4:15 AM 34.9 °F 25.7 °F 30.2 °F 83% 30.06 in 10.0 mi NNW 13.8 mph 18.4 mph N/A   Overcast
4:35 AM 34.7 °F 26.4 °F 30.4 °F 84% 30.08 in 10.0 mi NNW 11.5 mph 19.6 mph N/A   Overcast
4:55 AM 34.9 °F 25.7 °F 30.6 °F 84% 30.09 in 7.0 mi NNW 13.8 mph 21.9 mph N/A   Overcast
5:15 AM 34.7 °F 25.1 °F 30.2 °F 84% 30.11 in 7.0 mi North 15.0 mph 27.6 mph N/A   Overcast
5:35 AM 34.5 °F 24.8 °F 30.2 °F 84% 30.11 in 7.0 mi North 15.0 mph 23.0 mph N/A   Overcast
5:55 AM 34.7 °F 25.1 °F 30.4 °F 84% 30.13 in 7.0 mi NNW 15.0 mph 26.5 mph N/A   Overcast
6:15 AM 34.3 °F 26.5 °F 30.4 °F 85% 30.16 in 7.0 mi NNW 10.4 mph 23.0 mph N/A   Overcast
6:35 AM 34.2 °F 24.4 °F 30.2 °F 85% 30.16 in 7.0 mi NNW 15.0 mph 21.9 mph N/A   Overcast
6:55 AM 33.8 °F 24.8 °F 30.0 °F 86% 30.17 in 7.0 mi North 12.7 mph 19.6 mph N/A   Overcast
7:15 AM 33.6 °F 25.0 °F 28.6 °F 82% 30.19 in 10.0 mi NNW 11.5 mph 24.2 mph N/A   Overcast
7:35 AM 32.4 °F 24.0 °F 26.1 °F 78% 30.20 in 10.0 mi NNW 10.4 mph 21.9 mph N/A   Overcast
7:55 AM 32.0 °F 23.6 °F 24.8 °F 75% 30.21 in 10.0 mi NNW 10.4 mph 21.9 mph N/A   Overcast
8:15 AM 31.8 °F 21.4 °F 24.1 °F 73% 30.22 in 10.0 mi NNW 15.0 mph 21.9 mph N/A   Overcast
8:35 AM 31.1 °F 20.9 °F 23.0 °F 72% 30.23 in 10.0 mi NNW 13.8 mph 19.6 mph N/A   Overcast
8:55 AM 30.9 °F 21.7 °F 22.6 °F 71% 30.23 in 10.0 mi NNW 11.5 mph 19.6 mph N/A   Overcast
9:15 AM 30.7 °F 22.0 °F 22.3 °F 71% 30.23 in 10.0 mi NNW 10.4 mph 23.0 mph N/A   Overcast
9:35 AM 30.9 °F 21.2 °F 23.0 °F 72% 30.24 in 10.0 mi NNW 12.7 mph 25.3 mph N/A   Overcast
9:55 AM 30.2 °F 18.9 °F 22.5 °F 73% 30.25 in 10.0 mi North 16.1 mph 27.6 mph N/A   Overcast
10:15 AM 29.8 °F 19.8 °F 21.4 °F 71% 30.26 in 10.0 mi North 12.7 mph 21.9 mph N/A   Overcast
10:35 AM 29.5 °F 21.1 °F 20.8 °F 70% 30.28 in 10.0 mi North 9.2 mph 21.9 mph N/A   Overcast
10:55 AM 29.5 °F 18.8 °F 20.3 °F 69% 30.28 in 10.0 mi North 13.8 mph 23.0 mph N/A   Overcast
11:15 AM 29.3 °F 19.1 °F 20.1 °F 69% 30.29 in 10.0 mi North 12.7 mph 21.9 mph N/A   Overcast
11:35 AM 28.8 °F 18.4 °F 19.9 °F 70% 30.29 in 10.0 mi NNW 12.7 mph 19.6 mph N/A   Overcast
11:55 AM 28.4 °F 18.5 °F 20.3 °F 72% 30.29 in 10.0 mi North 11.5 mph 21.9 mph N/A   Overcast
12:15 PM 28.4 °F 17.0 °F 19.8 °F 70% 30.29 in 10.0 mi NNW 15.0 mph 23.0 mph N/A   Overcast
12:35 PM 28.2 °F 18.3 °F 19.9 °F 71% 30.30 in 10.0 mi North 11.5 mph 18.4 mph N/A   Overcast
12:55 PM 27.7 °F 18.8 °F 19.6 °F 72% 30.30 in 7.0 mi NNW 9.2 mph 20.7 mph N/A   Overcast
1:15 PM 27.5 °F 16.8 °F 20.3 °F 74% 30.30 in 7.0 mi NNW 12.7 mph 20.7 mph N/A   Overcast
1:35 PM 27.3 °F 16.6 °F 18.9 °F 70% 30.30 in 10.0 mi NNW 12.7 mph 21.9 mph N/A   Overcast
1:55 PM 27.3 °F 17.1 °F 18.9 °F 70% 30.30 in 10.0 mi NNW 11.5 mph 19.6 mph N/A   Overcast
2:15 PM 27.5 °F 16.8 °F 18.0 °F 67% 30.30 in 10.0 mi North 12.7 mph 25.3 mph N/A   Overcast
2:35 PM 27.5 °F 17.4 °F 17.1 °F 65% 30.30 in 10.0 mi North 11.5 mph 26.5 mph N/A   Overcast
2:55 PM 27.1 °F 16.9 °F 16.7 °F 65% 30.31 in 10.0 mi North 11.5 mph 24.2 mph N/A   Overcast
3:15 PM 27.1 °F 14.9 °F 17.4 °F 67% 30.32 in 10.0 mi NNW 16.1 mph 25.3 mph N/A   Overcast
3:35 PM 26.6 °F 15.2 °F 17.6 °F 69% 30.33 in 10.0 mi North 13.8 mph 23.0 mph N/A   Overcast
3:55 PM 26.6 °F 15.7 °F 18.0 °F 70% 30.35 in 10.0 mi NNW 12.7 mph 21.9 mph N/A   Overcast
4:15 PM 26.4 °F 14.5 °F 17.4 °F 69% 30.35 in 10.0 mi NNW 15.0 mph 25.3 mph N/A   Overcast
4:35 PM 26.4 °F 15.5 °F 17.6 °F 69% 30.37 in 10.0 mi North 12.7 mph 21.9 mph N/A   Overcast
4:55 PM 26.2 °F 14.7 °F 18.1 °F 71% 30.37 in 10.0 mi NNW 13.8 mph 24.2 mph N/A   Overcast
5:15 PM 26.4 °F 14.0 °F 19.0 °F 74% 30.38 in 7.0 mi North 16.1 mph 25.3 mph N/A Snow Light Snow
5:35 PM 26.6 °F 15.2 °F 18.5 °F 71% 30.39 in 7.0 mi NNW 13.8 mph 21.9 mph N/A Snow Light Snow
5:55 PM 27.1 °F 17.5 °F 18.5 °F 70% 30.39 in 10.0 mi NNW 10.4 mph 23.0 mph N/A Snow Light Snow
6:15 PM 27.3 °F 19.9 °F 18.5 °F 69% 30.41 in 7.0 mi NNW 6.9 mph 17.3 mph N/A Snow Light Snow
6:35 PM 26.6 °F 16.2 °F 19.4 °F 74% 30.41 in 3.0 mi NNW 11.5 mph 21.9 mph N/A Snow Light Snow
6:55 PM 26.4 °F 17.3 °F 19.6 °F 75% 30.42 in 5.0 mi North 9.2 mph 17.3 mph N/A Snow Light Snow
7:15 PM 26.2 °F 14.7 °F 18.9 °F 74% 30.43 in 5.0 mi NNW 13.8 mph 24.2 mph N/A Snow Light Snow
7:35 PM 25.3 °F 15.3 °F 19.4 °F 78% 30.44 in 3.0 mi North 10.4 mph 18.4 mph N/A Snow Light Snow
7:55 PM 25.0 °F 15.5 °F 19.4 °F 79% 30.45 in 2.5 mi North 9.2 mph 25.3 mph N/A Snow Light Snow
8:15 PM 24.3 °F 12.7 °F 19.2 °F 81% 30.47 in 1.8 mi NNW 12.7 mph 24.2 mph N/A Snow Light Snow
8:35 PM 23.7 °F 14.0 °F 19.6 °F 84% 30.48 in 1.8 mi NNW 9.2 mph - N/A Snow Light Snow
8:55 PM 23.7 °F 15.6 °F 19.4 °F 84% 30.49 in 2.0 mi North 6.9 mph 20.7 mph N/A Snow Light Snow
9:15 PM 23.7 °F 14.0 °F 19.4 °F 84% 30.50 in 2.5 mi North 9.2 mph - N/A Snow Light Snow
9:35 PM 22.8 °F 13.6 °F 18.1 °F 82% 30.51 in 2.5 mi NNW 8.1 mph 18.4 mph N/A Snow Light Snow
9:55 PM 23.0 °F 13.9 °F 18.7 °F 84% 30.51 in 1.5 mi North 8.1 mph 18.4 mph N/A Snow Light Snow
10:15 PM 23.0 °F 13.1 °F 18.9 °F 84% 30.51 in 2.5 mi NNW 9.2 mph - N/A Snow Light Snow
10:35 PM 23.4 °F 12.2 °F 19.2 °F 84% 30.52 in 2.5 mi NNW 11.5 mph 18.4 mph N/A Snow Light Snow
10:55 PM 23.0 °F 13.9 °F 18.1 °F 82% 30.53 in 5.0 mi NNW 8.1 mph 16.1 mph N/A Snow Light Snow
11:15 PM 22.5 °F 9.9 °F 17.6 °F 82% 30.54 in 5.0 mi NNW 13.8 mph 20.7 mph N/A Snow Light Snow
11:35 PM 22.5 °F 8.9 °F 17.2 °F 80% 30.55 in 10.0 mi NW 16.1 mph 20.7 mph N/A   Overcast
11:55 PM 22.1 °F 11.3 °F 16.7 °F 80% 30.56 in 10.0 mi NW 10.4 mph 18.4 mph N/A   Overcast